{"data":{"norad_id":58151,"epoch":"2026-05-24T15:31:44.052960Z","epoch_age_seconds":104708,"freshness":"FRESH","line1":"1 58151U 23166B   26144.64703765  .00019217  00000+0  65937-3 0  9995","line2":"2 58151  53.1576 226.9393 0000890  78.0847 282.0253 15.30194278144803","mean_motion":15.30194278,"eccentricity":8.9e-5,"inclination_deg":53.1576,"raan_deg":226.9393,"arg_perigee_deg":78.0847,"mean_anomaly_deg":282.0253,"bstar":0.00065937,"rev_number":14480,"period_min":94.105697603452,"perigee_km":474.62220447843,"apogee_km":475.8421041879,"semimajor_km":6853.3691543332,"source":"CELESTRAK","updated_at":"2026-05-25T13:38:18.536068Z"}}